Theta_e
307 306 305 305 306 306 304 304 303 302 302 301 301 299 300 301 302 302 300 300 300 300 299 299 300 300 302 303 305 305 307 307 305 304 305 305 304 305 305 306 307 308 307 307 307 306 306 306 306 305 307 306 305 310 307 304 313 322 321 312 312 317 316 313 314 316 315 317 321 316 313 312 311 312 309 309 312 314 315 316 323 333 334 332 332 331 333 336
306 305 305 305 305 305 304 304 303 302 301 301 301 300 300 301 302 302 301 301 301 300 300 300 299 300 300 302 304 306 308 308 305 305 305 304 304 305 305 306 307 308 308 307 307 306 307 307 305 305 309 310 307 310 308 306 312 317 314 309 314 319 313 310 313 316 314 315 318 314 312 311 309 311 309 308 310 312 313 312 322 338 337 331 333 332 334 336
305 305 305 305 305 305 305 304 303 303 302 302 301 300 300 300 302 302 301 301 301 301 300 300 300 300 300 301 303 306 309 309 307 306 305 303 304 305 305 306 307 308 308 308 307 306 307 307 304 305 312 310 307 313 316 311 311 311 308 309 318 319 309 309 315 315 314 314 313 311 311 310 311 312 309 310 312 312 314 312 316 330 336 332 332 333 334 336
304 304 304 304 305 305 305 304 303 303 302 302 301 301 300 300 301 302 302 301 301 301 300 301 300 300 300 302 304 306 309 309 307 305 304 303 303 305 306 306 307 308 309 307 307 306 307 306 303 307 312 312 313 318 315 311 311 307 306 312 316 310 305 309 314 318 317 313 310 310 309 308 313 312 308 310 310 310 314 317 315 320 332 333 333 334 334 336
304 303 303 303 303 305 305 304 304 303 303 302 301 301 300 300 300 301 302 301 301 301 301 301 300 301 300 303 309 309 309 308 305 304 304 303 303 305 305 305 306 308 308 307 307 307 307 305 306 311 312 312 317 317 310 308 309 306 310 314 311 305 307 310 311 318 316 310 310 309 308 307 309 308 307 310 308 309 316 321 320 322 329 329 329 333 334 334
305 303 303 301 301 303 304 304 304 303 303 302 301 301 300 300 300 301 301 301 302 301 301 301 301 301 299 305 311 310 309 306 304 304 303 303 303 304 305 305 306 307 307 307 307 306 307 306 309 313 311 312 312 309 309 310 309 309 315 315 311 308 310 312 310 315 312 307 309 307 307 308 307 308 310 311 308 310 315 319 321 319 318 315 316 324 332 335
305 305 303 300 300 302 303 304 303 302 302 302 302 301 300 300 300 300 301 302 302 301 301 301 301 300 299 305 309 312 313 306 303 304 303 302 303 303 304 304 305 307 307 307 307 306 308 309 310 310 310 312 309 307 309 312 310 308 314 315 313 312 312 314 312 311 310 308 309 307 308 309 307 309 310 310 310 310 311 310 311 308 306 306 310 318 326 331
305 305 303 302 303 303 302 302 302 301 301 302 302 301 301 300 300 300 300 301 301 301 301 300 301 300 300 303 311 321 318 307 303 304 303 303 303 302 304 305 305 306 306 308 307 306 309 310 309 308 310 312 307 308 309 311 313 310 313 316 315 315 315 316 313 311 311 310 309 308 309 310 308 309 308 308 309 309 308 306 305 305 305 306 309 315 320 323
305 305 303 303 304 304 303 302 302 301 301 302 302 302 301 300 300 300 300 300 300 301 300 300 300 300 300 304 312 321 314 305 304 304 303 303 303 303 304 305 305 306 306 308 307 306 309 309 308 307 309 310 306 310 309 309 314 311 313 316 314 314 313 313 312 312 312 311 309 309 311 311 308 308 310 311 310 309 308 308 308 308 308 308 308 310 312 316
305 305 304 304 305 304 303 304 303 302 301 302 302 302 301 300 300 300 300 300 300 300 300 300 300 300 301 306 314 315 305 304 305 303 304 304 303 303 303 304 305 306 305 306 307 307 308 307 307 305 306 307 307 308 308 308 312 311 312 313 312 312 311 311 312 311 310 310 311 310 312 312 309 308 311 313 312 310 310 311 311 308 308 307 307 307 306 309
305 304 304 304 304 303 303 304 303 302 301 301 302 302 301 300 300 300 300 300 300 300 300 300 299 300 302 310 321 313 303 305 305 303 304 304 303 303 302 304 305 306 306 305 307 306 306 306 305 305 306 306 307 309 310 310 310 311 311 312 311 311 312 312 313 312 309 312 313 310 310 311 309 309 310 311 310 309 310 312 312 310 309 307 307 307 304 304
304 304 304 304 304 304 304 303 302 302 301 301 302 301 301 300 300 300 300 300 300 299 300 299 300 301 303 313 321 310 303 304 304 304 304 303 303 303 303 304 305 306 306 305 306 306 305 305 305 307 307 306 309 311 310 309 309 310 310 311 313 313 313 314 315 314 311 314 315 310 310 312 311 311 311 311 310 309 310 311 311 309 309 308 307 306 305 303
304 303 304 304 304 303 304 303 301 301 301 301 301 300 300 300 299 300 299 300 299 299 300 299 300 302 306 313 312 305 304 304 303 305 304 303 303 303 304 305 305 306 306 306 306 306 306 305 305 307 307 308 311 310 308 309 309 310 309 310 314 314 317 317 314 313 312 315 315 311 312 316 316 314 312 309 309 311 313 314 313 310 308 308 307 306 306 304
304 304 303 304 303 302 303 302 300 300 300 301 300 300 300 299 300 299 299 300 299 300 299 299 303 305 309 314 308 302 303 303 304 305 303 303 304 304 305 305 305 306 306 306 307 307 306 305 305 306 307 308 309 309 311 312 311 312 311 312 313 313 321 321 315 313 313 315 314 311 313 315 315 314 313 310 310 312 314 315 314 312 310 308 308 308 307 305
304 304 303 303 303 301 302 301 300 299 299 300 300 300 300 299 300 299 300 300 299 300 298 301 306 305 310 314 307 303 303 303 305 304 303 304 304 304 304 304 305 305 306 306 307 307 306 305 306 309 310 309 310 313 316 316 314 314 312 315 315 314 317 316 313 314 314 314 311 310 313 314 311 312 312 310 311 313 312 314 313 312 311 310 308 307 308 307
303 304 303 302 302 301 301 300 299 299 300 300 299 299 299 299 300 299 300 299 299 300 299 304 307 306 314 315 306 305 304 303 304 303 303 305 305 305 305 305 306 306 307 307 307 307 306 306 307 308 310 312 314 315 317 320 319 316 314 315 316 313 312 311 313 316 315 312 310 311 313 313 311 313 314 312 312 313 312 312 311 311 312 311 309 307 307 307
303 303 302 301 302 302 301 300 299 300 300 299 300 299 299 299 300 300 300 299 301 301 301 304 303 307 315 311 305 306 305 303 303 303 305 306 305 305 305 306 307 306 308 307 308 308 306 308 309 308 311 313 314 315 316 317 316 315 314 313 312 311 310 310 313 315 313 312 312 312 311 311 310 311 313 311 311 312 311 310 310 310 310 310 309 308 307 307
302 302 302 302 302 302 301 300 299 300 300 300 299 299 301 302 301 301 301 303 305 303 303 305 303 307 310 306 305 306 304 303 303 304 306 306 305 305 306 307 306 307 312 312 309 310 309 310 312 314 317 316 316 316 313 311 311 312 313 311 311 311 311 310 311 311 311 312 312 311 311 310 310 309 309 309 310 310 309 309 309 308 309 309 309 309 308 307
302 302 303 302 302 302 301 300 299 300 300 299 300 301 304 308 305 303 303 306 310 306 305 307 305 306 305 305 305 304 303 303 304 305 307 306 304 306 307 307 307 309 317 317 312 312 312 314 317 319 321 319 317 316 313 312 312 312 312 311 311 311 310 310 310 310 309 310 311 310 311 310 310 310 309 309 309 309 309 308 308 308 309 309 309 308 308 307
302 302 303 302 302 302 301 300 299 300 300 300 305 306 307 311 310 309 309 310 311 306 304 308 307 306 305 305 305 303 303 305 305 307 308 306 305 308 308 308 313 315 316 313 311 313 311 317 322 320 320 319 317 316 314 314 313 312 313 312 311 310 310 309 309 310 309 310 311 311 311 311 310 310 309 309 309 309 309 308 308 308 309 308 309 308 307 307
302 303 303 302 302 301 301 300 299 300 300 302 308 308 306 308 309 309 310 310 307 302 304 307 305 304 303 303 304 302 304 307 306 307 308 305 305 308 307 311 317 317 313 309 311 312 310 313 316 317 320 317 314 314 312 313 312 313 313 311 310 309 310 309 308 309 308 310 312 311 311 310 309 309 309 309 309 310 309 309 309 308 308 309 309 308 308 307
301 302 303 302 302 302 301 299 299 300 300 303 308 307 304 304 304 302 302 305 305 301 303 305 303 305 304 303 305 303 305 309 306 307 307 305 307 308 308 314 315 313 313 313 313 313 314 315 311 313 317 313 312 314 312 311 311 312 311 310 311 309 309 309 311 312 310 310 310 309 310 309 308 308 308 308 309 310 309 309 309 308 308 308 308 309 309 308
301 301 302 302 302 301 300 299 300 300 300 304 307 307 303 300 300 299 300 306 308 304 306 309 308 311 310 307 306 303 305 308 306 308 307 305 309 309 309 315 314 311 314 315 314 312 317 320 312 310 312 310 313 314 311 311 311 310 310 311 311 309 309 311 312 312 310 309 309 309 309 308 309 310 310 311 312 311 310 310 309 309 308 308 308 309 309 309
302 301 302 302 301 301 300 299 300 300 301 304 306 304 301 299 299 300 303 308 309 306 307 307 306 310 312 307 303 305 308 307 305 306 305 305 308 308 308 312 312 314 314 311 312 311 314 315 309 310 313 312 312 312 310 310 311 311 310 312 312 309 310 310 309 309 308 309 309 309 309 309 311 312 310 311 311 311 310 309 309 309 309 308 308 309 309 309
302 301 302 302 302 301 299 298 300 302 303 304 304 300 298 300 299 300 306 311 311 310 306 304 305 307 308 304 303 305 307 307 306 305 305 306 307 306 307 308 310 315 315 311 311 312 313 311 308 312 316 313 310 311 310 308 310 313 312 313 311 310 310 309 308 308 308 310 309 308 310 311 309 309 310 309 309 309 309 309 309 308 308 308 308 309 308 308
303 302 302 302 302 300 299 302 303 304 304 303 302 299 298 300 299 300 310 318 319 316 309 305 305 307 305 304 305 305 306 307 307 306 305 306 306 304 306 308 308 311 313 311 310 310 311 310 308 312 314 311 310 311 310 308 310 312 311 311 311 310 310 309 309 309 309 310 308 308 309 311 309 309 309 308 309 310 310 310 309 309 308 308 308 308 308 308
303 302 302 303 302 299 301 306 305 303 304 304 303 299 297 300 299 301 312 321 319 313 309 306 304 304 304 303 305 304 304 305 305 307 307 307 308 304 306 311 309 309 310 311 313 313 311 311 311 311 311 310 311 312 311 309 310 311 310 310 311 311 310 310 309 308 309 308 308 309 311 311 311 311 310 309 310 311 310 310 309 308 308 308 308 308 308 308
302 302 303 303 301 299 301 305 304 301 304 306 302 297 299 300 299 304 315 318 314 309 309 309 304 304 305 304 305 306 305 304 302 305 305 305 307 306 309 311 308 308 309 309 313 315 309 308 310 309 309 311 313 313 310 308 309 311 312 310 310 311 309 309 309 308 308 307 310 311 311 312 311 311 312 311 311 312 310 309 308 307 307 308 308 308 308 308
302 302 303 302 302 299 299 303 303 302 304 303 298 298 300 298 301 313 319 312 311 309 308 308 305 306 307 306 308 309 308 306 302 304 305 306 306 305 307 310 308 309 308 307 312 315 309 306 308 307 309 312 315 315 311 310 310 310 310 310 310 310 308 308 309 309 308 308 312 311 310 312 310 311 315 312 312 312 310 309 308 307 307 307 308 307 307 308
302 302 303 303 301 298 299 302 302 303 303 299 298 300 299 302 314 324 319 312 310 308 307 307 305 306 307 306 309 309 306 308 308 306 308 309 307 306 305 305 307 309 308 307 309 311 307 305 307 308 309 311 311 311 310 309 309 309 309 310 311 309 308 310 310 309 311 312 312 311 311 311 309 312 315 314 313 311 309 308 307 307 307 307 307 306 306 307
302 302 303 302 300 299 302 303 302 304 301 298 298 298 301 313 325 325 314 311 310 307 306 308 308 309 308 305 307 309 307 310 310 307 308 309 310 312 310 307 308 312 315 312 307 308 308 306 308 309 309 309 309 309 310 308 306 309 311 310 311 312 312 313 310 309 313 314 312 311 310 310 309 310 312 313 313 311 309 308 307 307 307 307 306 306 307 307
302 303 303 302 300 300 303 304 304 303 299 298 298 302 311 314 315 320 315 309 310 308 306 307 309 311 310 305 305 309 308 307 309 307 306 308 311 311 310 308 306 310 316 312 306 311 316 310 306 308 309 308 310 310 312 313 310 311 312 311 312 313 312 312 310 311 313 313 313 311 308 309 309 309 309 312 313 311 308 307 306 306 306 306 306 306 307 307
303 303 303 303 301 300 303 304 304 302 299 298 301 310 320 313 310 322 319 311 308 305 306 308 307 307 307 306 308 307 304 303 306 307 304 307 312 309 306 306 304 304 308 309 306 310 316 313 307 309 310 307 309 310 310 314 314 311 311 313 314 313 312 312 310 311 312 310 311 310 307 308 310 310 313 314 312 310 307 306 307 307 306 306 306 307 307 306
303 303 303 303 300 299 302 304 304 302 297 299 308 314 313 311 316 318 314 312 307 304 307 308 306 306 305 305 307 305 303 302 304 306 305 307 312 312 310 308 305 304 306 306 306 305 307 311 312 309 308 308 310 310 308 310 311 310 310 313 315 313 312 312 310 311 311 309 309 308 308 310 309 311 316 315 311 309 307 306 306 307 307 306 307 308 308 307
303 303 303 302 300 299 302 303 303 300 297 304 315 314 308 312 316 314 316 315 307 305 308 304 304 306 306 308 308 304 301 301 303 304 306 307 308 312 314 311 306 305 305 304 304 304 305 309 310 305 305 308 310 310 308 309 309 308 309 311 312 311 311 310 310 310 309 308 309 308 310 311 310 312 315 314 311 308 307 306 305 306 307 308 309 309 308 309
303 303 302 301 299 299 301 303 301 297 300 308 310 307 311 316 311 310 316 311 307 310 307 305 308 307 309 310 309 305 300 300 303 303 305 306 304 307 310 311 307 304 304 303 302 305 307 309 308 304 306 308 307 309 309 306 305 307 310 310 307 308 310 309 309 308 307 309 310 310 310 310 311 312 313 313 311 308 307 306 305 306 307 308 309 308 307 309
304 302 301 300 298 298 301 302 299 298 303 308 307 309 315 313 307 311 313 305 306 311 307 307 311 308 311 311 308 310 305 301 304 304 306 307 303 307 309 308 305 302 303 304 303 302 304 309 308 304 308 309 305 309 311 306 303 306 311 309 305 307 310 308 308 308 308 310 310 310 310 309 310 311 311 311 310 308 307 307 306 306 306 306 308 308 306 307
303 301 300 300 299 299 300 300 298 301 307 306 306 313 314 308 305 309 310 302 304 311 308 308 309 306 310 310 309 310 305 305 309 307 309 308 303 308 311 307 304 303 303 303 304 303 302 307 309 304 305 308 306 309 311 308 305 304 306 307 305 309 311 308 308 309 309 310 310 310 310 310 311 312 311 311 310 308 307 306 306 306 306 306 306 307 307 307
302 301 302 303 301 299 300 298 298 304 309 305 305 310 310 307 305 305 305 303 304 309 308 309 307 304 308 309 310 308 302 305 310 305 306 305 300 304 308 307 306 305 304 303 304 306 302 305 310 306 302 303 306 309 309 309 308 306 308 308 306 309 310 307 308 308 309 310 310 310 310 311 315 314 311 310 309 307 306 306 306 305 307 308 306 306 307 308
300 301 303 302 301 300 298 298 301 306 309 307 307 308 307 306 305 302 302 304 304 304 306 310 307 304 306 307 307 306 303 304 305 303 304 304 302 302 305 307 307 305 305 304 303 305 303 303 308 309 305 303 304 306 306 306 306 306 308 307 306 308 310 308 306 307 309 309 309 311 310 310 313 314 311 309 308 306 305 305 305 305 307 308 307 306 307 308
300 302 304 300 299 299 298 299 301 305 309 309 307 305 305 305 305 304 302 302 301 300 303 309 309 308 309 308 306 306 306 306 305 304 304 304 304 302 303 307 308 305 304 305 304 306 305 303 306 309 309 309 307 304 303 303 302 304 306 305 307 310 310 309 308 307 308 308 308 309 310 309 311 313 311 309 308 306 304 304 305 305 307 308 308 308 308 309
301 304 303 299 298 298 299 301 302 305 309 308 305 304 305 305 305 304 302 301 301 300 300 303 306 309 309 308 307 306 306 307 305 305 305 304 304 302 303 306 308 306 306 306 304 304 305 305 306 308 307 305 304 301 300 301 301 303 303 304 307 309 309 310 310 308 307 306 307 308 308 310 312 314 312 310 307 304 304 305 305 306 306 307 309 310 309 309
302 302 299 298 298 298 299 301 302 305 308 306 303 303 304 304 305 304 301 301 302 301 300 301 302 305 306 304 304 304 304 305 306 309 309 306 303 303 304 305 306 305 305 305 303 302 304 304 304 308 307 304 303 302 301 301 302 302 302 304 305 306 307 308 308 307 306 306 308 309 309 312 315 314 312 310 308 305 305 306 305 305 306 307 309 310 310 309
301 299 298 298 298 298 300 301 302 303 305 303 301 301 301 303 305 304 301 303 304 302 302 303 301 302 305 304 303 305 304 304 305 306 305 304 303 302 304 305 304 303 304 305 303 301 303 305 303 304 309 310 311 311 309 306 305 304 302 302 303 303 305 305 305 306 307 307 308 309 310 313 314 314 311 309 308 306 305 305 305 305 305 305 308 309 308 308
299 299 299 298 297 298 300 302 304 304 303 303 302 303 302 302 303 304 304 304 305 304 304 303 302 304 305 303 303 304 303 303 303 302 302 303 301 301 304 303 302 304 307 306 304 300 302 305 302 301 305 307 308 309 307 305 305 304 302 300 300 301 302 303 304 306 309 309 306 307 310 312 311 310 308 307 306 305 304 303 303 304 304 304 307 309 308 307
301 302 300 298 298 299 298 299 302 305 304 302 302 303 304 304 303 302 302 302 303 303 302 301 302 304 304 302 303 304 302 301 301 301 303 303 302 302 303 303 303 306 306 305 305 304 304 303 302 303 306 305 304 303 302 301 301 302 301 300 299 300 301 302 304 307 311 309 306 308 310 310 309 307 305 305 305 304 303 302 302 302 303 303 306 310 310 308
303 303 300 299 300 299 299 298 299 302 304 302 302 304 304 304 304 302 300 300 302 302 301 300 301 302 303 303 303 304 303 301 300 301 304 304 302 301 300 302 304 304 303 303 303 304 305 304 302 303 304 302 301 300 299 299 300 300 300 300 300 300 301 302 304 307 309 307 308 312 310 307 306 305 304 305 304 303 303 302 301 303 303 303 305 309 311 309
303 303 301 301 303 301 299 299 299 300 303 302 302 304 303 303 304 304 301 299 299 302 302 301 301 302 304 304 305 305 302 300 301 303 304 305 303 301 300 300 301 301 301 301 301 303 305 304 301 301 303 303 301 300 299 298 299 299 299 300 299 299 300 301 302 304 306 307 309 311 309 305 304 304 304 305 305 303 302 302 302 303 304 304 303 306 309 310
301 303 301 301 305 303 300 301 300 298 301 301 301 304 304 303 303 304 303 300 300 301 302 302 303 303 303 303 305 306 304 304 306 306 304 303 302 303 304 302 300 300 300 300 300 300 303 305 303 300 303 305 301 299 297 298 300 302 301 299 298 298 298 298 299 300 302 304 306 306 306 304 303 305 306 304 305 305 303 301 301 301 303 304 303 303 306 309
301 303 303 301 304 302 300 303 301 299 300 301 301 303 304 303 303 302 302 303 305 303 301 302 304 303 301 301 304 306 305 309 313 310 306 305 304 304 305 305 303 299 299 300 299 296 297 304 306 301 302 306 301 296 297 299 302 303 302 299 296 295 296 297 297 298 300 304 305 305 306 308 309 309 305 301 303 305 302 300 299 299 301 302 302 302 304 305
301 301 301 300 301 301 300 301 300 299 301 300 301 303 303 303 303 302 301 303 306 306 301 301 303 302 299 300 303 304 303 307 311 309 307 306 306 305 304 303 304 302 301 300 299 297 296 301 304 301 303 308 303 299 302 300 297 299 304 306 304 301 302 303 302 302 303 305 306 306 310 314 313 307 302 301 302 302 300 299 299 299 299 300 301 302 303 303
301 300 299 300 302 301 300 300 300 300 301 301 301 302 304 303 302 301 302 303 304 304 302 301 303 303 301 300 302 302 304 307 307 304 303 303 304 306 304 301 303 305 302 299 299 299 298 302 304 300 302 311 306 300 301 301 300 304 308 311 309 306 304 303 303 304 304 302 304 307 311 311 307 303 302 303 302 301 300 300 299 299 300 300 300 301 302 302
Wind_Speed
3 3 1 2 2 1 2 3 2 3 3 3 3 2 1 1 1 3 5 8 10 12 14 14 15 15 14 12 8 3 3 6 17 28 22 13 14 15 15 16 18 21 21 19 21 16 12 16 18 19 12 4 3 3 4 3 3 4 3 2 2 3 4 3 3 4 1 3 4 5 5 4 6 7 5 8 4 3 6 4 3 3 5 3 4 3 21 26
3 2 2 1 1 1 1 3 3 3 3 4 3 3 2 1 0 1 3 6 8 10 12 14 15 15 15 13 8 4 3 3 12 21 17 14 15 14 13 16 17 19 21 21 21 18 11 11 15 14 8 3 3 3 3 3 4 3 3 1 3 5 4 4 5 4 2 3 4 4 3 2 4 5 5 5 8 8 8 7 3 4 5 6 3 9 22 26
3 3 3 2 1 1 0 3 4 4 4 4 4 4 4 3 2 1 1 4 6 9 11 13 15 15 16 14 8 5 4 4 6 11 12 14 14 12 13 15 16 16 19 19 17 15 9 8 10 5 4 3 3 3 3 3 3 2 3 0 5 4 3 4 4 5 4 3 2 3 2 2 4 3 2 3 7 7 6 7 3 2 2 3 0 8 19 25
2 2 2 2 1 1 1 2 4 5 4 4 5 5 5 4 3 2 1 2 4 7 10 13 14 15 16 14 10 6 4 3 4 5 10 13 13 12 12 14 15 15 16 16 13 12 13 11 6 3 4 3 4 4 3 2 2 1 2 3 6 2 3 5 5 5 5 3 2 3 2 5 6 2 1 1 5 6 5 6 6 6 5 4 4 7 14 22
3 3 2 2 1 1 1 3 4 5 5 5 5 5 6 6 5 4 3 2 3 7 9 12 14 15 16 13 10 7 1 4 3 5 10 11 12 11 11 14 14 13 14 15 14 14 16 14 7 5 4 3 4 5 1 3 2 1 3 4 5 1 2 6 5 5 3 1 3 2 3 5 4 2 3 4 4 7 5 6 7 7 6 3 3 6 12 17
4 5 4 3 1 1 1 3 4 5 6 5 5 6 6 7 6 5 5 4 4 6 9 11 14 15 16 12 8 7 4 2 3 5 9 10 12 12 11 13 12 11 13 15 17 16 14 12 7 4 4 3 3 2 2 4 2 1 4 3 4 3 3 5 3 4 3 1 5 3 2 3 2 4 5 6 9 10 9 8 7 7 9 7 6 6 8 11
3 5 5 4 3 4 4 4 5 5 6 6 5 6 7 7 7 6 6 5 5 6 8 10 13 15 15 10 5 5 6 1 3 4 8 11 12 12 11 12 11 10 13 16 17 11 7 8 6 3 3 3 1 2 3 5 2 2 4 5 5 4 5 6 3 3 3 5 7 2 3 6 6 5 3 5 11 15 14 10 9 12 14 12 8 7 8 11
2 5 6 5 5 6 6 5 5 4 5 6 6 6 7 7 7 7 6 6 5 6 8 10 12 14 15 10 2 4 4 1 3 4 7 10 12 12 11 11 12 12 13 14 13 7 4 6 5 2 3 1 0 3 3 5 2 3 4 5 4 3 5 7 6 7 8 8 6 2 7 12 8 3 3 9 16 16 13 9 10 12 13 11 9 9 10 11
2 4 5 4 5 6 6 5 5 4 5 6 6 6 7 7 7 7 7 6 6 6 7 10 11 12 13 8 4 4 3 3 3 5 7 9 12 12 11 11 13 13 11 9 9 8 3 2 2 2 1 2 1 3 3 4 2 3 4 5 5 6 7 7 8 10 9 6 2 2 10 11 4 2 6 14 17 13 9 8 9 10 10 11 10 11 11 10
2 3 4 4 5 6 6 6 6 5 5 6 6 6 7 7 7 7 6 6 6 5 7 9 11 12 11 6 5 3 2 3 4 6 8 10 11 13 12 11 11 11 9 8 8 7 4 1 1 1 2 1 1 3 0 2 2 3 3 6 8 9 8 6 8 10 7 4 4 5 9 10 2 0 5 12 12 6 5 8 9 8 10 13 12 11 12 13
3 3 3 4 5 6 7 7 7 6 5 5 6 7 7 7 6 6 6 5 5 5 6 8 10 12 10 5 5 2 2 3 4 5 8 10 12 14 12 9 9 9 8 7 6 5 4 1 1 1 1 0 1 2 2 3 3 4 4 8 10 8 8 7 8 9 4 3 6 9 6 8 3 2 9 15 10 2 4 8 8 7 9 12 13 12 11 13
3 3 4 4 5 6 8 7 7 6 5 5 6 6 6 6 6 5 5 5 4 4 6 7 9 10 8 5 3 2 2 3 4 5 7 11 13 13 9 6 6 7 6 7 6 4 4 4 2 2 1 1 1 1 1 4 3 3 2 6 11 9 9 8 5 3 3 2 4 7 1 6 5 9 14 15 9 4 4 8 8 8 9 10 11 10 8 11
3 4 4 5 5 7 8 8 7 6 5 4 5 5 4 4 4 4 4 4 4 4 4 6 8 8 5 2 1 2 2 3 4 4 7 12 12 8 6 5 4 6 5 6 7 5 4 4 2 1 1 2 1 2 1 1 1 1 1 1 6 8 7 7 1 1 2 3 6 5 2 5 9 14 15 10 7 6 6 7 7 7 7 8 9 9 8 10
4 5 5 5 6 6 8 8 7 5 4 3 4 3 3 2 2 2 2 3 4 4 4 5 6 5 3 1 2 1 3 3 4 5 9 13 10 5 5 5 4 6 6 7 8 5 4 5 2 1 0 2 2 2 3 3 2 1 1 1 2 3 5 7 2 3 1 3 6 4 3 6 9 13 13 8 6 5 6 8 7 7 7 7 8 8 8 10
5 6 6 6 6 5 7 8 7 5 3 3 2 2 1 1 1 1 1 2 3 3 3 3 4 3 3 1 2 1 3 3 4 7 10 12 10 5 7 9 6 4 4 7 7 5 5 5 2 2 2 2 2 4 4 4 3 2 1 2 2 2 5 9 4 5 5 4 3 4 4 6 10 13 13 8 5 7 8 8 8 9 9 8 8 7 8 9
5 7 7 6 5 5 7 8 6 4 2 2 2 1 1 0 1 1 1 2 3 3 2 1 2 4 3 1 2 2 3 3 5 10 10 9 9 7 10 11 4 3 4 7 6 4 4 3 1 1 1 3 4 4 4 3 4 3 1 3 4 4 5 7 6 4 6 3 1 4 5 6 8 10 11 8 5 7 8 9 11 11 10 9 7 7 7 8
7 7 7 6 5 5 6 7 5 4 2 2 1 1 1 1 1 1 1 2 2 2 1 1 1 3 2 1 2 3 3 4 8 10 8 7 7 8 11 7 3 5 8 6 2 3 3 2 1 1 2 3 2 3 5 4 5 4 1 3 4 6 6 6 6 5 1 2 4 6 6 9 12 11 12 11 9 10 10 11 14 13 10 9 8 7 7 8
8 7 7 6 5 5 6 5 4 3 2 1 1 0 0 1 1 1 1 1 1 2 3 1 1 3 1 1 1 3 5 8 10 8 6 7 7 8 8 4 3 8 7 5 3 2 2 2 1 1 3 4 3 5 3 3 4 5 4 4 5 5 6 8 8 6 3 3 7 7 7 12 15 15 15 14 13 13 14 13 14 13 12 9 9 8 8 9
8 8 7 7 5 5 5 5 4 3 2 2 2 1 1 1 1 0 0 0 1 2 1 1 1 2 1 1 2 6 8 9 8 4 5 8 8 7 5 2 3 5 5 4 3 2 1 3 4 2 3 3 1 2 3 5 6 7 6 5 6 7 8 10 10 8 5 5 8 8 9 11 14 16 16 14 11 12 14 13 12 12 11 9 9 9 9 9
8 8 8 8 5 5 5 4 4 3 2 2 3 2 1 1 2 2 2 2 1 2 1 1 1 1 2 2 4 9 8 5 2 2 5 10 8 5 3 4 5 5 4 2 4 2 2 3 2 3 4 5 5 5 6 6 5 5 5 5 7 8 9 10 10 10 4 3 7 7 8 11 14 16 17 14 9 10 12 12 12 11 11 9 9 9 11 10
9 9 9 8 5 5 5 4 4 3 2 2 4 2 1 1 1 2 3 2 1 2 1 2 2 1 2 2 5 7 4 2 2 2 6 9 6 3 3 4 6 5 3 2 3 3 3 3 3 6 8 6 5 4 3 2 3 4 4 5 6 5 9 11 9 10 4 2 8 9 9 12 14 15 16 13 8 9 11 11 12 13 11 10 9 10 11 9
9 11 10 8 5 5 5 4 4 3 2 1 3 2 1 2 2 0 1 1 2 0 2 0 1 2 3 2 3 4 3 3 4 4 7 9 5 2 2 4 5 3 4 3 3 5 4 1 5 5 5 2 3 2 3 1 2 4 3 3 6 5 7 9 6 4 3 3 10 11 9 12 14 14 14 12 8 8 9 8 10 11 10 9 9 9 9 8
8 10 9 7 5 5 5 4 4 4 2 1 3 2 1 1 2 1 1 1 3 2 1 0 0 2 2 0 0 3 3 2 3 5 7 8 4 2 2 4 3 3 4 5 4 4 3 5 6 2 0 2 3 4 5 4 2 3 3 2 6 5 4 5 4 3 5 6 10 10 9 9 11 9 9 9 7 6 7 7 7 7 8 9 8 7 8 9
7 8 8 7 6 5 4 3 4 3 2 2 3 1 2 2 2 1 1 1 3 2 0 1 2 2 1 1 1 2 1 1 3 4 6 5 2 1 2 2 3 3 2 2 1 2 6 9 4 3 4 2 2 5 4 4 4 4 4 3 6 6 3 6 8 9 8 6 4 9 10 6 3 5 8 7 4 4 6 7 8 6 5 7 7 6 7 8
8 8 7 6 5 4 2 2 2 1 2 3 2 1 2 1 1 1 2 2 3 4 1 1 1 1 2 2 1 2 1 2 3 3 5 4 1 2 2 1 2 2 5 3 2 4 7 8 2 3 4 5 3 5 3 1 5 5 4 6 7 6 6 8 10 10 8 4 3 9 8 5 4 7 9 7 5 5 6 9 12 11 9 6 5 5 7 7
9 8 7 6 5 2 2 1 1 2 2 3 2 2 3 1 1 1 2 4 3 4 1 1 0 1 2 1 1 2 2 3 3 2 3 3 1 1 2 2 2 2 5 4 3 3 4 3 2 3 3 5 4 5 4 3 3 5 4 5 6 5 7 10 10 7 4 5 5 4 2 5 8 8 6 5 4 5 8 11 12 11 11 10 8 6 5 6
10 9 7 5 4 3 3 1 2 4 1 3 4 4 3 1 0 0 3 4 3 2 1 1 0 2 2 0 1 3 1 4 2 1 1 2 1 2 1 3 2 2 2 3 3 2 3 3 4 4 5 5 4 4 4 4 2 5 4 1 5 7 9 9 7 4 2 5 7 1 3 4 7 6 4 4 4 6 9 11 12 10 9 10 11 9 7 6
11 10 7 5 3 5 5 1 3 5 1 2 5 5 3 1 1 2 4 2 2 1 1 1 1 2 0 1 3 3 2 3 1 2 2 2 1 3 2 3 3 3 2 4 1 5 2 1 2 3 5 3 3 4 5 4 0 7 5 4 8 8 7 6 4 3 2 2 5 2 1 3 6 5 4 5 5 7 9 10 11 10 10 11 11 12 11 8
10 9 6 5 4 6 6 3 4 4 1 2 5 5 3 1 0 4 5 1 1 1 1 1 1 1 2 3 4 3 2 2 0 3 2 2 0 2 1 3 5 3 2 3 4 6 2 2 3 3 2 3 6 6 4 5 4 8 5 6 8 5 3 2 0 1 1 1 4 5 2 2 6 5 4 4 5 7 9 9 9 9 10 10 11 13 12 10
10 9 7 5 4 6 6 4 5 4 1 3 6 4 3 1 3 6 2 3 1 0 0 1 1 1 4 3 4 4 2 2 2 3 2 1 1 2 0 1 4 3 1 1 4 7 5 2 3 3 3 6 3 3 4 5 7 7 5 5 5 3 3 3 1 2 3 1 5 4 0 1 5 4 2 2 4 6 8 11 12 11 11 10 10 11 11 10
10 9 7 6 5 7 7 3 5 5 3 6 6 3 1 2 4 5 3 4 1 0 0 1 1 2 5 3 2 3 2 3 4 3 3 2 4 4 3 3 3 3 4 4 3 7 7 3 1 2 2 4 2 4 2 2 5 5 4 4 3 4 4 3 3 3 4 4 6 3 1 1 4 4 4 5 5 5 8 11 14 14 14 12 11 11 9 9
11 10 8 7 7 9 8 3 5 7 6 7 5 1 3 2 1 3 4 2 1 1 1 1 1 3 4 2 1 2 2 3 2 2 1 2 3 3 2 1 1 4 5 4 4 7 5 1 3 4 1 3 4 4 5 4 5 5 4 4 5 5 4 5 4 3 1 4 5 1 3 2 5 7 9 9 7 7 9 10 12 12 13 13 12 12 9 8
12 10 8 8 8 11 10 4 5 9 8 8 4 3 6 3 3 5 3 1 1 1 1 2 2 3 3 1 1 1 1 2 1 1 0 1 3 2 2 0 3 3 1 3 3 6 5 4 3 2 2 1 4 2 4 4 5 5 4 3 4 3 4 5 5 4 3 5 7 6 4 2 5 6 8 7 7 9 11 11 10 10 10 10 12 11 9 8
12 9 9 10 9 12 12 6 5 10 10 7 3 4 5 3 5 3 2 4 2 2 2 2 2 3 2 1 2 1 0 2 1 2 1 2 3 1 1 3 2 3 2 1 2 1 2 5 3 1 1 1 3 2 2 0 3 5 2 2 4 3 1 1 2 4 6 8 10 6 1 2 6 6 5 5 7 9 10 10 10 9 8 7 8 8 7 7
12 10 10 10 10 13 13 7 7 12 11 5 5 4 4 5 4 2 3 4 2 1 1 2 3 3 2 2 2 0 1 2 2 2 2 1 1 2 2 2 1 2 3 2 2 1 1 5 6 3 1 4 2 2 3 4 2 4 1 3 2 3 4 2 3 5 7 8 7 2 1 4 6 6 4 4 8 11 11 11 12 12 10 8 6 5 6 5
13 10 9 10 10 13 14 9 10 14 10 5 5 2 6 4 3 3 3 3 4 4 3 2 2 2 2 3 2 1 1 2 2 2 2 1 2 3 3 3 1 2 2 2 1 1 1 5 5 3 2 2 2 2 3 4 0 2 2 1 2 3 6 2 3 5 4 5 5 2 4 6 5 5 4 4 9 11 11 12 12 12 12 10 7 5 6 4
13 9 8 9 9 13 14 10 13 13 6 6 4 6 5 3 3 4 2 3 3 5 5 1 1 2 2 2 2 2 0 2 2 1 2 2 1 3 3 2 1 2 3 3 1 2 1 5 5 1 2 1 2 2 3 4 3 2 2 2 2 1 4 3 1 3 2 3 4 3 6 8 5 4 5 8 13 12 11 13 13 12 11 10 6 4 5 4
12 6 5 7 10 13 14 13 15 11 5 4 4 5 3 3 2 2 2 3 3 4 5 3 3 3 3 2 3 3 1 1 2 1 1 2 1 3 5 2 1 0 2 3 2 1 1 3 7 1 1 3 2 4 3 3 2 1 2 1 2 2 2 1 0 1 3 4 5 4 6 6 3 4 9 13 16 15 15 14 13 13 13 9 6 3 3 3
11 4 2 6 11 13 15 17 14 7 5 4 6 5 3 3 2 2 2 2 3 4 3 4 2 2 3 4 3 3 2 3 2 0 1 1 1 2 4 3 2 1 1 2 2 1 1 0 5 5 2 3 4 3 1 4 4 3 2 3 1 2 2 1 1 1 2 4 5 6 7 5 4 4 7 13 13 13 15 14 12 14 13 8 4 4 3 1
10 2 1 8 14 14 17 16 9 4 3 4 5 3 2 2 2 2 2 1 2 2 2 4 3 2 3 3 3 2 2 3 3 2 2 2 1 2 2 3 4 2 2 4 2 1 2 1 4 6 5 3 2 0 3 2 3 2 3 3 2 1 1 0 1 2 1 2 3 5 7 7 5 2 3 10 12 11 11 12 12 12 12 6 3 4 4 1
7 1 2 10 16 18 18 11 4 3 3 3 3 2 2 2 2 1 2 0 1 0 1 3 4 4 4 3 3 3 3 2 3 2 3 3 1 2 3 4 6 5 2 4 1 2 1 1 3 5 5 2 4 3 2 3 4 3 1 1 2 1 2 2 1 1 1 1 3 3 5 8 5 2 3 6 8 10 10 10 11 12 12 8 3 4 3 1
4 2 4 11 19 20 14 5 1 3 3 4 3 2 1 2 3 2 1 1 2 0 1 2 3 3 4 3 3 4 4 2 3 2 3 4 3 3 2 4 6 6 5 2 2 3 2 3 0 5 5 5 8 6 2 4 4 4 1 0 2 2 3 3 1 2 1 2 3 2 4 7 5 4 4 5 7 9 10 9 9 10 11 10 6 2 1 2
2 2 3 8 15 15 8 2 2 2 3 4 1 1 1 2 2 2 2 1 1 2 1 1 2 3 3 3 3 4 4 3 4 4 3 3 3 2 2 6 6 5 4 2 2 1 1 3 1 5 5 5 7 5 0 4 4 2 2 1 1 1 2 3 2 1 1 2 2 1 4 6 4 3 3 4 6 8 8 7 9 9 8 10 8 4 3 4
3 3 2 4 10 9 5 4 5 6 5 2 1 0 0 1 3 4 4 4 3 4 3 2 3 2 2 2 3 4 5 3 3 3 2 3 2 1 2 6 5 3 2 2 2 2 1 1 1 3 6 6 7 6 6 5 3 2 3 1 1 0 2 1 1 1 1 2 2 0 4 6 6 5 5 7 8 10 9 8 8 7 7 8 7 5 4 4
4 3 2 1 4 4 3 4 5 6 6 4 2 4 2 1 3 4 5 4 3 4 4 1 1 3 3 3 2 1 3 2 1 2 1 2 2 2 3 2 2 2 3 2 3 3 2 2 3 2 2 3 4 5 4 3 3 2 1 1 1 0 1 2 1 1 1 2 2 2 5 9 12 12 12 12 12 13 13 11 9 8 7 7 5 2 3 3
4 3 2 1 2 1 2 1 4 4 6 6 3 3 6 4 2 1 3 4 3 3 2 0 2 4 3 3 3 2 3 1 1 1 2 3 2 2 2 2 2 2 3 2 3 3 2 2 4 5 6 5 5 7 3 1 3 5 6 7 3 2 3 3 2 2 3 1 3 5 5 9 16 15 15 15 13 13 13 12 11 10 9 8 6 2 3 3
3 2 6 5 1 2 3 3 2 2 3 8 6 4 9 7 1 0 1 2 3 3 2 1 3 4 4 5 4 3 4 1 1 2 3 3 2 1 1 3 3 1 3 3 1 3 4 2 4 6 9 9 8 10 4 2 4 7 8 10 5 3 4 4 5 5 2 1 4 5 2 6 15 15 14 14 13 11 12 11 10 9 9 9 7 4 4 4
4 2 5 6 3 6 7 6 9 8 5 7 6 4 9 10 6 5 3 0 1 3 3 2 4 8 9 9 6 4 3 1 2 3 3 3 3 1 1 1 1 1 1 2 2 3 5 3 4 4 7 10 10 12 7 3 5 7 7 11 10 5 6 8 9 7 3 3 6 7 5 8 13 14 12 10 9 9 9 9 8 8 7 8 8 7 4 4
4 1 3 3 1 7 9 6 11 13 8 7 5 5 9 12 12 8 3 4 1 4 5 5 7 10 11 8 7 5 5 5 4 5 5 3 4 3 1 1 1 1 2 2 1 1 3 3 4 2 5 10 9 9 7 5 4 6 8 11 10 8 8 9 9 8 7 9 10 9 10 11 10 9 9 9 8 7 7 6 6 6 7 7 7 8 7 4
4 2 3 3 1 4 4 4 9 11 8 5 5 5 7 11 13 7 3 6 6 3 5 10 10 10 11 9 8 7 10 10 6 6 7 5 3 4 3 3 3 2 2 2 1 1 0 2 1 2 3 8 6 3 1 4 5 6 10 10 7 7 7 7 7 6 6 9 10 7 7 9 7 5 6 8 7 6 6 7 7 6 6 6 6 7 6 6
6 2 5 5 3 5 4 3 7 9 8 7 7 6 8 12 13 10 4 6 8 8 11 16 11 7 6 8 10 12 12 10 5 4 9 9 5 5 3 4 7 6 3 2 1 1 1 2 2 5 3 7 4 4 5 2 2 4 11 12 8 5 4 5 5 6 6 5 5 3 3 6 5 3 6 7 7 7 8 8 8 7 6 6 6 5 5 5
9 2 4 6 4 6 6 4 6 7 7 9 10 10 9 8 9 11 5 5 6 8 11 14 11 7 5 8 15 16 10 8 4 2 6 5 4 3 3 4 7 7 6 5 2 2 4 2 1 3 2 6 5 5 6 4 3 4 8 8 7 6 5 5 4 6 7 5 2 2 3 5 4 5 6 7 8 9 8 7 6 7 7 7 5 4 4 4
Wind_Direction
46 53 72 80 60 42 211 218 230 230 231 222 206 203 181 92 52 54 43 40 35 23 17 15 17 16 10 9 6 326 315 11 32 40 49 37 16 15 11 10 11 5 1 4 11 15 4 2 357 356 5 18 17 6 357 7 34 47 81 110 219 212 200 214 213 207 186 256 287 329 19 30 318 323 333 328 323 332 329 314 333 355 5 353 322 180 165 167
36 41 50 89 116 72 212 229 234 235 239 232 219 218 219 218 251 48 40 37 33 20 13 9 10 10 6 3 1 345 298 315 26 39 40 25 19 14 10 15 14 7 4 7 10 9 1 342 334 349 14 17 356 3 5 2 36 73 109 111 224 205 217 227 195 199 208 223 263 309 348 22 311 317 350 326 305 334 334 302 358 24 351 359 33 147 159 164
23 22 26 26 148 89 222 236 239 237 242 238 229 226 228 234 246 282 28 30 27 16 7 5 5 4 2 355 354 339 293 297 7 25 22 20 20 12 14 17 13 11 7 6 7 7 1 330 322 351 45 28 349 7 27 12 30 94 110 65 242 223 269 264 188 196 222 215 247 280 313 330 272 289 347 298 302 318 303 281 309 360 302 321 100 161 167 169
5 3 10 7 40 18 267 253 251 241 245 245 238 232 234 240 244 251 285 6 14 7 1 0 358 0 359 349 350 331 295 1 350 345 5 16 20 11 12 16 13 9 5 8 13 14 10 359 5 74 60 26 337 19 41 342 16 78 142 186 235 246 311 259 208 204 215 211 220 243 333 314 268 249 232 238 308 290 258 250 252 267 254 220 197 185 187 181
348 344 351 353 51 17 305 270 265 249 246 247 243 237 237 242 245 252 263 310 344 353 354 356 353 355 356 349 348 336 351 43 334 334 2 12 19 9 6 13 13 4 360 12 18 20 17 12 30 57 50 48 348 21 7 296 58 20 235 210 230 202 279 251 216 211 202 225 248 254 303 286 264 266 239 208 242 249 233 237 241 250 238 220 223 207 206 200
346 337 343 344 341 351 320 285 278 258 247 247 247 241 240 244 246 254 260 282 312 341 346 349 351 350 352 356 353 353 73 97 308 348 359 10 16 6 6 7 9 3 359 15 21 25 23 15 31 48 35 54 12 26 297 305 47 343 281 280 258 205 240 256 224 216 189 258 258 247 265 260 264 274 248 211 232 243 233 234 241 246 242 259 279 244 222 218
342 327 335 350 2 349 324 307 294 269 253 248 248 244 243 246 249 255 259 278 297 328 340 344 348 348 350 356 351 14 72 135 296 346 355 11 9 2 11 6 8 9 6 20 25 23 25 24 33 71 48 42 18 348 309 316 16 178 260 298 281 233 241 257 264 250 224 250 256 269 309 277 253 262 287 219 233 245 242 237 241 255 260 265 269 250 233 231
339 326 329 351 6 351 331 317 308 286 263 251 253 249 247 250 250 255 257 272 293 318 333 340 345 347 349 352 17 33 38 269 300 341 351 7 5 6 13 8 12 13 17 27 26 18 30 37 21 55 52 21 334 327 322 334 339 177 232 278 290 272 266 277 298 293 279 271 269 296 284 274 252 235 291 251 243 246 247 251 250 256 264 263 252 243 241 237
333 324 326 352 357 341 334 327 320 298 270 254 257 256 254 257 253 254 256 267 289 312 326 337 343 349 348 351 85 56 330 255 300 334 343 356 2 7 8 7 9 11 23 25 22 27 50 65 3 52 100 241 315 326 351 15 315 203 236 274 295 292 283 288 288 279 279 275 239 263 274 278 275 234 263 254 251 252 250 255 253 253 259 257 249 239 240 243
320 315 317 346 347 331 336 336 324 306 280 260 262 267 264 263 259 256 255 264 282 303 323 334 338 348 352 0 77 62 283 255 303 331 337 344 354 360 2 2 360 7 19 14 19 33 51 139 256 136 157 223 311 283 273 101 244 258 282 282 281 284 286 276 266 271 277 264 192 200 262 279 313 28 265 261 256 249 237 252 252 247 253 252 251 241 237 243
298 306 305 328 337 330 340 341 327 313 289 272 271 274 273 270 268 262 256 265 275 293 317 331 339 348 357 21 91 121 256 268 300 330 330 334 346 346 351 354 351 6 12 8 11 18 26 346 307 108 134 39 279 274 236 215 279 307 315 302 288 290 293 263 260 275 272 263 208 186 250 290 319 187 241 258 265 246 227 258 259 239 246 250 252 248 238 239
283 291 303 317 330 332 341 341 333 320 295 289 287 282 285 282 275 267 258 262 269 285 306 328 341 345 0 29 115 196 279 295 299 323 328 332 339 334 343 354 347 357 356 0 354 346 356 335 24 74 242 209 261 339 235 231 282 308 341 311 300 322 311 269 259 256 180 227 189 154 286 295 255 233 238 251 265 297 279 267 267 247 246 253 255 255 246 240
278 290 300 309 320 329 339 340 335 323 305 306 303 297 298 291 285 273 258 257 262 274 298 328 336 344 25 48 229 254 276 300 307 315 327 333 339 336 352 9 348 344 335 342 342 336 334 322 49 85 278 117 248 294 168 236 305 290 131 226 305 337 312 284 318 114 171 221 167 141 286 261 245 250 251 253 260 290 294 269 270 263 251 252 258 260 257 248
278 287 288 300 308 319 335 339 338 327 318 325 318 318 315 305 302 266 247 250 252 265 298 328 334 355 61 194 262 281 265 296 318 315 326 335 348 359 3 5 333 322 309 313 330 335 325 314 353 11 242 146 255 314 7 356 360 295 230 128 357 336 283 300 360 122 251 250 157 142 260 253 264 268 262 257 239 244 268 275 284 279 265 254 255 257 261 258
270 282 278 285 296 316 336 340 344 339 329 334 323 329 341 327 301 254 238 247 246 270 302 328 347 31 67 308 288 273 275 301 324 323 330 339 351 356 340 340 334 332 307 299 314 325 316 310 350 32 282 291 27 27 357 341 349 360 335 322 332 230 272 305 304 180 228 277 129 151 251 263 267 270 270 267 228 225 254 278 285 277 270 261 254 253 256 263
260 277 274 273 290 325 339 340 346 346 339 339 338 352 7 6 285 236 233 251 256 291 308 341 22 70 84 327 299 285 282 301 325 326 329 334 343 342 333 337 10 47 340 307 296 300 314 323 16 60 328 353 49 44 3 1 341 360 36 289 282 271 296 312 303 238 226 262 258 214 247 274 268 266 274 274 243 244 265 277 275 271 266 261 255 251 249 258
260 269 273 273 292 323 332 337 341 339 342 331 336 76 58 4 307 252 248 283 284 302 36 126 109 86 87 308 316 311 297 305 321 324 327 333 334 336 336 341 22 354 340 338 306 296 329 2 341 338 31 32 62 53 21 4 324 329 342 274 270 278 295 303 296 293 253 203 245 241 242 261 268 272 274 272 264 265 270 269 268 264 255 253 252 250 249 252
267 262 271 271 287 318 325 333 332 325 323 307 315 116 67 316 297 279 254 281 329 74 82 93 97 95 345 328 338 301 298 302 312 318 332 343 333 333 336 331 341 339 352 31 35 358 344 352 36 23 14 8 29 65 42 313 290 297 302 295 293 281 275 282 281 292 331 265 253 260 257 262 271 274 270 266 264 266 266 260 259 258 251 247 247 250 247 247
268 256 266 269 282 310 317 325 319 302 295 297 299 278 292 313 317 346 319 65 85 96 85 314 41 95 281 307 296 302 303 300 308 312 336 346 335 334 345 351 9 14 32 31 353 7 35 2 32 29 338 312 294 131 185 234 241 262 278 276 289 293 276 274 273 276 301 293 271 264 262 270 278 279 278 273 262 259 262 259 255 255 253 246 243 247 246 244
268 254 261 266 278 302 312 316 298 283 294 319 329 321 316 11 19 335 326 24 134 155 140 215 144 17 324 325 321 326 320 303 305 298 338 344 336 343 14 19 24 42 54 1 302 313 67 36 353 260 240 234 240 217 207 220 222 250 279 274 280 291 287 284 280 284 318 327 270 258 266 278 282 284 286 286 275 260 262 263 260 256 254 251 242 241 243 241
264 248 254 260 272 296 303 299 279 267 286 340 353 355 164 146 58 319 311 328 236 140 100 190 177 255 279 301 333 348 351 329 327 335 350 342 338 352 340 16 33 17 353 292 280 325 52 59 295 242 209 215 252 231 193 219 237 262 278 285 291 280 277 285 286 290 336 11 281 286 296 289 286 288 290 295 292 270 263 261 263 262 257 252 244 239 240 242
260 244 249 255 268 290 293 285 262 248 258 346 3 7 161 161 129 133 325 306 275 127 99 149 161 277 276 270 322 6 30 350 320 322 350 345 356 18 327 41 53 335 322 358 356 357 18 223 258 243 204 240 315 51 75 343 270 274 278 298 302 293 287 284 272 289 358 338 295 306 311 291 285 283 285 294 288 271 269 267 270 275 273 261 248 240 237 240
257 243 247 249 264 285 285 268 243 239 243 299 347 358 121 122 112 112 91 89 296 308 97 100 175 282 316 301 277 39 39 353 292 298 341 355 2 53 69 57 36 317 354 31 30 10 333 252 242 241 33 314 323 11 18 350 309 259 274 310 296 310 337 296 281 333 332 287 284 312 316 286 281 282 285 284 274 280 298 297 286 280 276 270 261 248 234 232
257 246 243 243 258 281 279 252 232 239 251 267 314 338 125 105 99 99 50 64 299 292 184 221 190 193 222 137 94 76 63 238 234 286 341 12 356 38 95 100 39 2 344 31 84 241 259 263 271 47 52 66 312 329 351 352 334 271 227 227 274 294 272 256 290 319 315 277 285 341 325 289 297 319 306 294 294 321 328 337 336 319 291 281 280 268 246 235
262 249 235 235 254 273 260 229 216 214 252 261 274 203 138 115 84 55 43 53 311 299 319 264 220 183 177 120 91 106 62 274 233 271 335 18 13 12 34 160 66 350 294 310 319 263 259 269 297 60 47 54 14 315 273 243 333 308 241 213 239 273 268 272 305 328 335 316 17 19 341 300 331 322 306 311 342 353 341 350 350 339 332 324 309 286 265 254
261 242 224 228 247 243 183 193 191 169 245 266 238 184 164 154 28 37 69 55 319 285 286 249 266 162 183 99 81 114 60 304 257 278 341 29 59 69 34 317 17 314 289 322 323 258 262 298 40 102 61 32 6 312 257 182 26 325 267 212 224 268 291 301 321 338 353 306 306 21 4 289 313 313 315 329 338 347 344 346 344 334 331 329 323 310 284 262
254 229 213 220 233 194 173 186 182 169 218 260 200 179 179 166 184 160 64 35 319 250 136 272 323 117 194 241 81 119 19 307 311 330 10 46 4 61 49 295 345 314 297 22 357 263 241 324 23 64 63 26 345 306 243 159 69 296 256 244 293 297 294 302 321 315 282 293 295 272 168 261 298 303 334 352 332 336 343 339 332 325 320 317 315 315 307 280
243 219 206 212 219 202 194 187 174 175 277 261 184 179 179 165 215 117 81 40 294 133 89 274 141 100 197 57 70 104 287 321 31 288 343 47 323 44 26 243 193 252 253 101 309 276 241 283 340 34 34 3 270 245 215 156 234 275 262 289 291 282 280 292 310 291 275 322 313 306 158 270 282 287 336 351 331 327 331 326 321 318 313 310 309 308 306 296
231 215 212 210 214 212 210 220 186 180 281 220 175 184 190 183 158 69 76 205 267 79 53 35 121 347 7 46 34 33 335 348 153 273 340 55 263 63 340 234 168 211 254 142 223 264 268 219 178 111 30 257 240 242 203 164 247 277 291 290 274 267 288 314 285 276 37 50 290 303 354 325 294 297 321 332 322 315 319 322 318 310 304 303 303 304 302 296
229 220 221 210 205 203 204 224 206 183 209 184 175 186 194 149 65 63 50 239 223 84 184 84 193 313 40 42 345 360 33 302 301 321 348 35 347 13 297 242 112 117 334 331 238 259 292 295 155 137 199 205 226 266 195 194 260 299 339 302 277 305 19 51 71 86 69 312 273 274 196 343 307 297 248 270 281 295 315 323 319 312 306 301 298 301 297 292
228 223 222 211 200 185 177 198 201 183 170 172 177 186 181 21 65 100 211 234 158 261 204 35 314 28 58 67 322 343 22 307 311 353 350 354 3 357 20 30 35 47 9 344 289 287 319 6 196 257 217 147 61 339 278 260 297 332 345 297 312 354 20 28 354 46 54 306 271 244 195 245 275 269 268 274 262 280 316 319 314 311 308 306 302 297 290 288
225 222 223 223 210 188 177 161 172 176 169 166 170 101 85 50 28 178 226 288 10 229 191 199 313 74 76 72 305 300 337 301 309 54 29 24 38 3 11 76 55 23 355 322 328 327 328 291 262 296 317 109 78 3 328 341 355 358 333 336 17 6 359 6 340 358 32 260 251 317 8 270 245 257 276 286 285 301 319 312 305 306 303 301 300 295 289 284
221 220 227 232 219 200 192 173 162 171 170 165 156 46 80 108 233 209 211 271 245 264 72 78 72 101 96 53 297 287 294 259 295 46 248 76 68 22 337 184 128 84 306 274 343 351 331 306 315 355 342 89 103 60 329 322 337 340 332 26 57 42 1 351 324 320 304 264 283 333 13 272 274 273 265 272 287 310 321 316 310 306 294 289 289 291 295 285
217 220 232 236 223 206 197 189 174 167 166 159 108 60 95 172 233 209 209 237 240 354 23 73 68 65 80 168 252 300 82 251 305 18 338 32 57 65 317 327 34 85 116 31 347 31 5 311 301 344 315 116 125 177 197 242 321 303 274 106 105 121 102 301 283 313 307 292 297 318 15 279 296 288 254 258 290 313 322 321 321 314 297 287 284 294 312 294
210 217 235 238 224 206 195 193 176 164 164 143 70 86 166 213 230 196 213 221 203 23 7 51 79 61 349 297 279 183 159 254 311 7 3 37 150 164 182 264 2 90 104 53 299 208 111 265 263 295 195 139 125 223 144 91 360 285 279 63 70 154 149 181 233 255 282 295 291 275 238 259 271 279 282 303 316 324 329 329 334 332 324 324 315 316 332 317
203 214 229 231 222 201 192 189 169 163 157 106 82 182 215 219 194 186 194 158 148 155 137 32 70 97 299 306 327 358 143 254 298 353 321 258 195 175 176 219 193 123 131 118 281 299 351 276 272 349 26 152 191 211 115 90 357 307 29 34 267 175 134 132 264 259 272 290 280 280 296 293 303 300 293 319 320 321 329 330 332 333 329 329 330 330 333 337
196 204 217 223 213 193 189 181 161 160 136 97 147 216 222 215 189 183 173 112 125 133 122 146 230 175 237 284 288 274 188 282 307 11 285 281 228 181 165 210 203 170 185 159 169 254 242 287 292 53 79 274 212 153 80 90 125 23 346 224 231 70 93 105 285 293 305 278 272 291 301 308 333 311 293 325 328 327 333 330 325 326 323 316 320 329 324 339
187 188 221 218 198 184 181 171 159 151 102 108 208 242 209 201 209 157 153 138 119 98 108 182 213 188 192 198 252 250 143 246 304 30 246 266 268 175 146 162 205 163 197 144 96 275 177 296 303 314 174 299 3 64 23 4 95 89 285 230 116 67 34 44 40 313 314 300 292 292 295 297 280 281 316 332 332 332 332 329 325 323 322 315 317 329 316 338
178 173 250 200 179 175 172 164 155 124 81 155 214 244 206 211 247 181 171 152 118 112 148 205 193 130 171 173 201 213 171 205 226 105 226 242 254 177 147 166 164 66 338 108 134 232 103 33 292 300 291 315 4 60 75 312 343 14 349 353 30 149 145 145 163 184 275 297 298 306 318 308 239 241 319 323 323 328 326 324 322 319 322 323 318 320 307 328
175 153 243 179 166 166 162 152 138 104 119 187 203 214 215 226 241 231 225 186 138 146 195 193 157 146 187 190 189 185 173 194 186 179 227 239 236 220 195 165 148 145 1 42 103 186 60 103 254 295 331 358 339 116 144 214 292 330 351 341 321 325 76 136 164 155 193 271 292 308 313 298 269 222 303 310 319 328 320 316 313 310 317 315 274 294 301 218
173 145 193 173 162 159 152 140 136 152 166 224 219 207 229 181 165 232 294 311 116 238 197 158 162 172 169 180 208 185 152 177 187 186 234 235 201 208 202 159 153 157 102 50 69 192 142 147 227 294 329 332 266 260 160 184 210 205 233 246 213 158 87 49 348 239 172 219 261 291 297 289 282 197 244 298 327 329 314 308 308 310 321 324 282 265 287 178
160 181 177 166 165 163 149 132 206 153 163 232 213 182 193 135 139 181 248 45 84 89 50 123 160 173 162 170 195 170 145 176 200 192 232 222 186 194 189 142 143 141 121 115 243 213 148 110 224 276 271 266 278 278 199 169 178 178 181 133 158 138 114 119 250 264 218 231 248 246 271 277 260 196 235 302 338 329 313 306 310 315 328 338 332 286 217 115
141 170 156 158 172 171 146 118 234 197 218 245 226 129 139 123 131 159 190 203 158 128 84 211 189 189 193 169 152 169 181 190 185 186 225 220 199 226 174 143 139 115 106 146 224 213 116 84 355 286 288 300 303 297 320 74 84 174 263 5 161 178 152 167 177 169 245 249 253 264 265 271 266 217 254 311 331 328 320 315 320 325 335 346 349 5 71 108
134 138 108 161 185 185 163 167 194 206 218 242 45 157 319 156 163 159 184 207 194 152 152 201 201 184 181 134 122 181 204 201 187 194 203 192 200 346 105 156 160 128 145 199 177 175 232 142 104 338 337 341 343 343 344 2 26 223 252 258 207 56 48 95 132 87 278 235 170 232 275 276 292 313 326 332 338 339 336 333 332 335 344 346 346 9 43 83
130 110 54 140 179 184 194 178 161 182 196 176 173 186 167 210 199 170 177 193 187 162 162 200 173 122 105 104 96 184 207 203 222 213 181 187 231 17 62 157 176 163 208 221 133 136 194 201 150 104 345 323 323 313 300 302 305 279 266 259 248 322 101 176 167 121 253 227 177 208 257 282 303 323 335 341 351 347 340 344 345 341 349 347 338 11 62 67
136 122 138 75 1 255 252 235 127 153 181 170 184 205 180 194 250 199 169 183 181 151 128 170 132 101 92 131 141 215 229 219 48 187 193 200 230 337 28 59 74 163 177 122 93 96 97 219 201 182 199 214 242 254 247 35 317 293 292 289 267 194 191 183 162 203 208 239 283 238 232 291 306 320 332 338 350 349 337 341 346 342 346 348 349 70 113 104
157 153 166 154 113 224 260 293 182 182 195 176 181 198 184 185 212 204 200 216 194 147 94 74 156 150 166 161 156 209 220 177 73 197 205 197 189 346 18 87 79 151 155 113 56 89 94 276 239 196 223 240 246 260 281 32 279 263 275 285 269 172 161 181 211 225 188 49 297 250 208 309 304 311 325 330 341 343 333 336 338 334 336 342 358 47 105 120
177 181 187 169 151 187 203 218 201 201 211 191 184 172 176 183 187 188 194 15 228 190 168 202 217 198 184 164 155 175 171 158 243 217 196 179 159 102 29 80 61 311 126 73 351 105 120 255 240 187 248 261 253 263 269 240 253 254 251 266 268 237 185 198 229 243 198 184 251 266 297 305 294 299 312 317 325 325 318 321 320 316 325 338 359 21 54 111
155 134 212 194 174 187 189 183 177 186 198 193 188 172 173 189 197 196 143 105 222 243 201 207 222 204 190 173 157 165 171 175 222 223 193 169 167 152 124 194 251 357 83 99 16 112 135 241 232 185 277 274 262 269 262 216 238 270 255 251 256 250 227 222 242 251 231 237 254 273 292 290 278 278 292 301 301 295 298 311 316 323 334 341 1 17 21 38
165 162 177 153 121 169 167 130 148 173 195 195 204 203 186 195 199 191 136 154 183 210 201 216 214 186 185 187 174 196 202 180 177 199 176 155 177 188 181 187 167 85 72 134 116 352 231 257 224 99 314 290 293 330 315 188 204 260 277 270 259 261 255 240 242 240 232 247 253 254 278 283 266 251 279 297 298 298 314 329 334 338 340 344 4 18 15 15
180 144 145 145 162 161 145 121 139 166 194 198 201 200 201 209 196 176 189 208 189 172 187 204 198 153 158 189 204 227 218 180 164 188 171 162 176 191 193 172 152 140 154 169 124 126 178 267 6 55 348 288 303 360 329 308 181 257 286 283 258 233 225 219 217 206 203 230 246 246 277 276 268 292 310 309 315 324 332 340 343 338 337 346 2 10 10 12
176 121 132 141 167 179 160 125 142 174 194 195 198 198 200 203 169 154 190 245 209 195 196 189 169 130 137 196 219 226 203 164 162 150 142 135 109 97 99 125 133 139 158 162 138 150 153 145 73 60 326 276 284 308 308 347 25 286 272 252 219 208 229 252 250 220 212 220 228 225 250 263 285 323 321 317 324 328 332 340 334 324 329 338 344 357 10 10